CXA8133 ZGHA-ZBTJ

Flight info

Callsign CXA8133
Flight time N/A
Altitude 31100
Route GUD9W GUDRO W56 GUVRI W85 OMDEK OMDEK5R
Aircraft B38M/M-SDE1FGHILORVWXY/HB1

Departure

Time N/A
Airport Changsha Huanghua International Airport (ZGHA)

Arrival

Time 2026-04-24 15:07
Airport Tianjin Binhai International Airport (ZBTJ)
Time Latitude Longitude Altitude Speed Heading
2026-04-24 13:33 29.35924 113.54480 31197 ft 475 kts 356°
2026-04-24 13:34 29.42499 113.55047 31165 ft 473 kts 356°
2026-04-24 13:34 29.49012 113.55609 31167 ft 473 kts 356°
2026-04-24 13:35 29.55621 113.56180 31165 ft 473 kts 356°
2026-04-24 13:35 29.62137 113.56744 31206 ft 473 kts 357°
2026-04-24 13:36 29.68740 113.57316 31162 ft 472 kts 357°
2026-04-24 13:36 29.75245 113.57880 31162 ft 472 kts 357°
2026-04-24 13:37 29.81792 113.58449 31164 ft 472 kts 357°
2026-04-24 13:37 29.88346 113.59019 31191 ft 472 kts 358°
2026-04-24 13:38 29.94873 113.59930 31143 ft 482 kts 11°
2026-04-24 13:38 30.01155 113.62902 31148 ft 489 kts 17°
2026-04-24 13:39 30.07411 113.65988 31161 ft 489 kts 17°
2026-04-24 13:39 30.13615 113.69083 31183 ft 489 kts 18°
2026-04-24 13:40 30.19851 113.72199 31159 ft 488 kts 18°
2026-04-24 13:40 30.26082 113.75318 31144 ft 488 kts 17°
2026-04-24 13:41 30.32338 113.78454 31154 ft 492 kts 17°
2026-04-24 13:41 30.38610 113.81602 31176 ft 489 kts 18°
2026-04-24 13:42 30.44833 113.84729 31160 ft 487 kts 18°
2026-04-24 13:42 30.49849 113.87253 31156 ft 488 kts 18°
2026-04-24 13:43 30.56075 113.90390 31160 ft 488 kts 18°
2026-04-24 13:43 30.62297 113.93530 31159 ft 486 kts 18°
2026-04-24 13:44 30.68517 113.96545 31162 ft 484 kts 18°
2026-04-24 13:44 30.74640 113.99882 31165 ft 486 kts 20°
2026-04-24 13:45 30.80721 114.03188 31170 ft 486 kts 20°
2026-04-24 13:45 30.86827 114.06503 31183 ft 482 kts 20°
2026-04-24 13:46 30.92919 114.09813 31170 ft 485 kts 20°
2026-04-24 13:46 30.99036 114.13143 31153 ft 486 kts 20°
2026-04-24 13:47 31.05158 114.16471 31155 ft 486 kts 20°
2026-04-24 13:47 31.11261 114.19789 31161 ft 482 kts 20°
2026-04-24 13:48 31.17338 114.23098 31160 ft 482 kts 20°
2026-04-24 13:48 31.23414 114.26411 31150 ft 481 kts 20°
2026-04-24 13:49 31.29487 114.29727 31181 ft 482 kts 20°
2026-04-24 13:49 31.35642 114.32704 31138 ft 471 kts
2026-04-24 13:50 31.42095 114.33270 31146 ft 465 kts 357°
2026-04-24 13:50 31.48559 114.33532 31160 ft 464 kts 356°
2026-04-24 13:51 31.55016 114.33733 31159 ft 464 kts 356°
2026-04-24 13:51 31.61434 114.33923 31160 ft 464 kts 356°
2026-04-24 13:52 31.67889 114.34113 31159 ft 464 kts 356°
2026-04-24 13:52 31.74347 114.34308 31159 ft 464 kts 356°
2026-04-24 13:53 31.80805 114.34504 31169 ft 463 kts 356°
2026-04-24 13:53 31.87224 114.34697 31159 ft 461 kts 356°
2026-04-24 13:54 31.93595 114.34889 31153 ft 461 kts 356°
2026-04-24 13:54 32.00009 114.35083 31143 ft 461 kts 356°
2026-04-24 13:55 32.06427 114.35278 31155 ft 461 kts 356°
2026-04-24 13:55 32.12835 114.35471 31154 ft 461 kts 356°
2026-04-24 13:56 32.19250 114.35666 31147 ft 461 kts 356°
2026-04-24 13:56 32.25659 114.35902 31143 ft 463 kts 359°
2026-04-24 13:57 32.32080 114.36519 31151 ft 463 kts 359°
2026-04-24 13:57 32.38506 114.37094 31146 ft 463 kts 359°
2026-04-24 13:58 32.44886 114.37660 31145 ft 463 kts 359°
2026-04-24 13:58 32.51303 114.38231 31145 ft 463 kts 359°
2026-04-24 13:59 32.57730 114.38802 31144 ft 463 kts 359°
2026-04-24 13:59 32.64155 114.39376 31147 ft 464 kts 359°
2026-04-24 14:00 32.70591 114.39976 31148 ft 464 kts 360°
2026-04-24 14:00 32.77028 114.40575 31160 ft 464 kts 360°
2026-04-24 14:01 32.83442 114.41173 31145 ft 462 kts
2026-04-24 14:01 32.89862 114.41772 31146 ft 463 kts
2026-04-24 14:02 32.96282 114.42372 31142 ft 463 kts
2026-04-24 14:02 33.02697 114.42973 31158 ft 462 kts
2026-04-24 14:03 33.09092 114.43571 31143 ft 461 kts
2026-04-24 14:03 33.15489 114.44172 31143 ft 461 kts
2026-04-24 14:04 33.21884 114.44773 31145 ft 461 kts
2026-04-24 14:04 33.28274 114.45374 31146 ft 460 kts
2026-04-24 14:05 33.34666 114.45975 31143 ft 460 kts
2026-04-24 14:05 33.41048 114.46575 31142 ft 460 kts
2026-04-24 14:06 33.47444 114.47178 31142 ft 460 kts
2026-04-24 14:06 33.53815 114.47779 31144 ft 459 kts
2026-04-24 14:07 33.60189 114.48381 31146 ft 459 kts
2026-04-24 14:07 33.66558 114.48977 31147 ft 459 kts
2026-04-24 14:08 33.72930 114.49573 31154 ft 459 kts
2026-04-24 14:08 33.79290 114.50169 31143 ft 458 kts
2026-04-24 14:09 33.85603 114.50763 31141 ft 458 kts
2026-04-24 14:09 33.91952 114.51361 31144 ft 458 kts
2026-04-24 14:10 33.98311 114.51961 31149 ft 458 kts
2026-04-24 14:10 34.04665 114.52561 31147 ft 458 kts
2026-04-24 14:11 34.11020 114.53163 31147 ft 458 kts
2026-04-24 14:12 34.20553 114.54067 31160 ft 458 kts
2026-04-24 14:12 34.26890 114.54669 31145 ft 456 kts
2026-04-24 14:13 34.33218 114.55271 31146 ft 456 kts
2026-04-24 14:13 34.39549 114.55874 31145 ft 456 kts
2026-04-24 14:14 34.45881 114.56477 31148 ft 456 kts
2026-04-24 14:14 34.55366 114.57375 31142 ft 456 kts
2026-04-24 14:15 34.61271 114.57935 31148 ft 456 kts
2026-04-24 14:15 34.67593 114.58537 31145 ft 455 kts
2026-04-24 14:16 34.73907 114.59137 31150 ft 455 kts
2026-04-24 14:17 34.83377 114.60040 31135 ft 455 kts
2026-04-24 14:17 34.92847 114.60945 31135 ft 455 kts
2026-04-24 14:18 34.99126 114.61547 31146 ft 455 kts
2026-04-24 14:18 35.05445 114.62153 31138 ft 455 kts
2026-04-24 14:19 35.11761 114.62759 31147 ft 455 kts
2026-04-24 14:19 35.18087 114.63368 31138 ft 456 kts
2026-04-24 14:20 35.24414 114.63978 31143 ft 456 kts
2026-04-24 14:20 35.29676 114.64485 31133 ft 456 kts
2026-04-24 14:21 35.36011 114.65097 31137 ft 457 kts
2026-04-24 14:21 35.43382 114.65811 31131 ft 457 kts
2026-04-24 14:22 35.48696 114.66326 31124 ft 458 kts
2026-04-24 14:23 35.58178 114.67247 31129 ft 458 kts
2026-04-24 14:23 35.64537 114.67866 31126 ft 459 kts
2026-04-24 14:24 35.70895 114.68486 31126 ft 459 kts
2026-04-24 14:24 35.77262 114.69108 31124 ft 459 kts
2026-04-24 14:25 35.83626 114.69730 31120 ft 459 kts
2026-04-24 14:25 35.89996 114.70354 31118 ft 459 kts
2026-04-24 14:26 35.96363 114.70979 31116 ft 459 kts
2026-04-24 14:26 36.02733 114.71605 31123 ft 459 kts
2026-04-24 14:27 36.09100 114.72229 31112 ft 458 kts
2026-04-24 14:27 36.15455 114.72851 31115 ft 458 kts
2026-04-24 14:28 36.21816 114.73474 31113 ft 458 kts
2026-04-24 14:28 36.28178 114.74101 31107 ft 459 kts
2026-04-24 14:29 36.34535 114.74738 31106 ft 458 kts
2026-04-24 14:29 36.37642 114.75405 31084 ft 462 kts 16°
2026-04-24 14:29 36.40597 114.76968 31118 ft 464 kts 22°
2026-04-24 14:30 36.46484 114.80281 31106 ft 464 kts 22°
2026-04-24 14:30 36.52344 114.83658 31095 ft 464 kts 22°
2026-04-24 14:31 36.58194 114.87049 31097 ft 464 kts 22°
2026-04-24 14:31 36.64047 114.90449 31099 ft 464 kts 22°
2026-04-24 14:32 36.69889 114.93847 31093 ft 464 kts 22°
2026-04-24 14:32 36.75743 114.97259 31091 ft 464 kts 22°
2026-04-24 14:33 36.81588 115.00671 31091 ft 464 kts 23°
2026-04-24 14:33 36.87421 115.04082 31093 ft 462 kts 23°
2026-04-24 14:34 36.93235 115.07487 31085 ft 461 kts 23°
2026-04-24 14:34 36.99011 115.10876 31085 ft 462 kts 23°
2026-04-24 14:35 37.04824 115.14292 31098 ft 461 kts 23°
2026-04-24 14:35 37.10602 115.17694 31085 ft 458 kts 23°
2026-04-24 14:36 37.16375 115.21098 31084 ft 458 kts 23°
2026-04-24 14:36 37.22147 115.24508 31081 ft 459 kts 23°
2026-04-24 14:37 37.27913 115.27919 31089 ft 458 kts 23°
2026-04-24 14:37 37.33677 115.31336 31087 ft 458 kts 23°
2026-04-24 14:38 37.39442 115.34759 31089 ft 459 kts 23°
2026-04-24 14:38 37.45220 115.38195 31081 ft 459 kts 23°
2026-04-24 14:39 37.50983 115.41628 31079 ft 458 kts 23°
2026-04-24 14:39 37.56750 115.45070 31074 ft 458 kts 23°
2026-04-24 14:40 37.62516 115.48516 31083 ft 459 kts 22°
2026-04-24 14:40 37.68291 115.51975 31080 ft 460 kts 22°
2026-04-24 14:41 37.74068 115.55439 31077 ft 460 kts 22°
2026-04-24 14:41 37.79979 115.58320 31058 ft 452 kts
2026-04-24 14:42 37.86198 115.58320 31060 ft 451 kts 355°
2026-04-24 14:42 37.92473 115.57933 31079 ft 451 kts 354°
2026-04-24 14:43 37.98730 115.57487 31035 ft 452 kts 354°
2026-04-24 14:43 38.01865 115.57258 30682 ft 450 kts 354°
2026-04-24 14:43 38.04992 115.57027 30196 ft 452 kts 354°
2026-04-24 14:43 38.08144 115.56814 29646 ft 454 kts 355°
2026-04-24 14:44 38.11304 115.56628 29075 ft 453 kts 355°
2026-04-24 14:44 38.14417 115.56423 28528 ft 445 kts 355°
2026-04-24 14:44 38.17497 115.56220 27993 ft 441 kts 355°
2026-04-24 14:44 38.20549 115.56018 27463 ft 437 kts 355°
2026-04-24 14:45 38.23609 115.55820 26937 ft 433 kts 356°
2026-04-24 14:45 38.26596 115.56174 26397 ft 432 kts 12°
2026-04-24 14:45 38.29412 115.57480 25929 ft 431 kts 22°
2026-04-24 14:45 38.32136 115.59039 25435 ft 428 kts 23°
2026-04-24 14:46 38.34785 115.60626 24956 ft 425 kts 24°
2026-04-24 14:46 38.37434 115.62250 24481 ft 421 kts 24°
2026-04-24 14:46 38.40057 115.63881 24015 ft 418 kts 25°
2026-04-24 14:46 38.42655 115.65511 23561 ft 414 kts 25°
2026-04-24 14:47 38.45229 115.67131 23025 ft 411 kts 25°
2026-04-24 14:47 38.47740 115.68842 22479 ft 409 kts 33°
2026-04-24 14:47 38.49822 115.71290 21941 ft 409 kts 50°
2026-04-24 14:47 38.51351 115.74352 21432 ft 409 kts 59°
2026-04-24 14:48 38.52728 115.77525 20918 ft 407 kts 60°
2026-04-24 14:48 38.54060 115.80705 20410 ft 405 kts 60°
2026-04-24 14:48 38.55369 115.83886 19906 ft 403 kts 61°
2026-04-24 14:48 38.56655 115.87051 19413 ft 401 kts 61°
2026-04-24 14:49 38.57931 115.90212 18940 ft 399 kts 61°
2026-04-24 14:49 38.59199 115.93363 18713 ft 397 kts 61°
2026-04-24 14:49 38.60460 115.96501 18659 ft 398 kts 61°
2026-04-24 14:49 38.61726 115.99658 18673 ft 400 kts 61°
2026-04-24 14:50 38.62995 116.02823 18674 ft 400 kts 61°
2026-04-24 14:50 38.64261 116.05988 18644 ft 400 kts 62°
2026-04-24 14:50 38.65147 116.09352 18205 ft 400 kts 80°
2026-04-24 14:50 38.65281 116.12887 17795 ft 399 kts 89°
2026-04-24 14:51 38.65258 116.16434 17388 ft 397 kts 90°
2026-04-24 14:51 38.65206 116.19957 16981 ft 395 kts 91°
2026-04-24 14:51 38.65137 116.23419 16585 ft 393 kts 91°
2026-04-24 14:51 38.65056 116.26905 16189 ft 391 kts 92°
2026-04-24 14:52 38.64970 116.30364 15794 ft 388 kts 92°
2026-04-24 14:52 38.64882 116.33797 15415 ft 384 kts 92°
2026-04-24 14:52 38.64879 116.37209 14901 ft 384 kts 83°
2026-04-24 14:52 38.65499 116.40501 14555 ft 379 kts 74°
2026-04-24 14:53 38.66223 116.43739 14190 ft 377 kts 74°
2026-04-24 14:53 38.66963 116.46971 13816 ft 378 kts 74°
2026-04-24 14:53 38.67709 116.50187 13412 ft 377 kts 74°
2026-04-24 14:53 38.68459 116.53389 13010 ft 374 kts 74°
2026-04-24 14:54 38.69206 116.56570 12607 ft 372 kts 74°
2026-04-24 14:54 38.69950 116.59740 12217 ft 370 kts 73°
2026-04-24 14:54 38.70683 116.62878 11877 ft 366 kts 74°
2026-04-24 14:54 38.71398 116.65978 11788 ft 358 kts 74°
2026-04-24 14:55 38.71859 116.67975 11788 ft 349 kts 74°
2026-04-24 14:55 38.72770 116.71923 11784 ft 344 kts 73°
2026-04-24 14:55 38.73731 116.74661 11758 ft 333 kts 53°
2026-04-24 14:55 38.75345 116.76622 11698 ft 319 kts 34°
2026-04-24 14:56 38.77113 116.78258 11568 ft 309 kts 36°
2026-04-24 14:56 38.78828 116.79887 11311 ft 305 kts 36°
2026-04-24 14:56 38.80531 116.81524 10973 ft 304 kts 36°
2026-04-24 14:56 38.82214 116.83153 10677 ft 302 kts 36°
2026-04-24 14:57 38.83891 116.84780 10328 ft 302 kts 36°
2026-04-24 14:57 38.85551 116.86394 10018 ft 300 kts 36°
2026-04-24 14:57 38.87214 116.88015 9656 ft 299 kts 36°
2026-04-24 14:57 38.88860 116.89618 9352 ft 296 kts 36°
2026-04-24 14:58 38.90503 116.91222 9006 ft 296 kts 36°
2026-04-24 14:58 38.92134 116.92811 8647 ft 295 kts 36°
2026-04-24 14:58 38.93771 116.94410 8280 ft 295 kts 37°
2026-04-24 14:58 38.95403 116.96005 7956 ft 294 kts 36°
2026-04-24 14:59 38.97032 116.97596 7608 ft 294 kts 36°
2026-04-24 14:59 38.98654 116.99183 7345 ft 291 kts 36°
2026-04-24 14:59 39.00266 117.00761 7003 ft 291 kts 37°
2026-04-24 14:59 39.01862 117.02323 6742 ft 287 kts 36°
2026-04-24 15:00 39.03431 117.03860 6376 ft 289 kts 36°
2026-04-24 15:00 39.05028 117.05426 6051 ft 288 kts 36°
2026-04-24 15:00 39.06619 117.06987 5706 ft 287 kts 36°
2026-04-24 15:00 39.08201 117.08541 5408 ft 285 kts 36°
2026-04-24 15:01 39.09774 117.10085 5083 ft 284 kts 36°
2026-04-24 15:01 39.11330 117.11614 4847 ft 279 kts 36°
2026-04-24 15:01 39.12865 117.13123 4585 ft 276 kts 36°
2026-04-24 15:01 39.14384 117.14618 4336 ft 273 kts 36°
2026-04-24 15:02 39.15883 117.16094 4068 ft 270 kts 36°
2026-04-24 15:02 39.17361 117.17549 3922 ft 262 kts 36°
2026-04-24 15:02 39.18789 117.18956 3916 ft 258 kts 36°
2026-04-24 15:02 39.20203 117.20350 3877 ft 252 kts 36°
2026-04-24 15:03 39.21113 117.21247 3797 ft 246 kts 36°
2026-04-24 15:03 39.22884 117.22994 3591 ft 234 kts 36°
2026-04-24 15:03 39.24177 117.24293 3152 ft 236 kts 40°
2026-04-24 15:03 39.25049 117.26037 2813 ft 230 kts 75°
2026-04-24 15:04 39.25107 117.27987 2546 ft 215 kts 107°
2026-04-24 15:04 39.24433 117.29609 2244 ft 200 kts 142°
2026-04-24 15:04 39.23366 117.30603 2034 ft 176 kts 159°
2026-04-24 15:04 39.22329 117.31257 1801 ft 161 kts 165°
2026-04-24 15:05 39.21329 117.31847 1590 ft 153 kts 164°
2026-04-24 15:05 39.20391 117.32416 1422 ft 147 kts 163°
2026-04-24 15:05 39.19476 117.32975 1202 ft 145 kts 162°
2026-04-24 15:05 39.18565 117.33535 1000 ft 145 kts 161°
2026-04-24 15:06 39.17655 117.34095 817 ft 145 kts 160°
2026-04-24 15:06 39.16746 117.34648 644 ft 144 kts 158°
2026-04-24 15:06 39.15854 117.35219 404 ft 144 kts 158°
2026-04-24 15:06 39.14937 117.35775 237 ft 146 kts 156°
2026-04-24 15:07 39.14027 117.36336 45 ft 145 kts 155°
2026-04-24 15:07 39.13255 117.36805 25 ft 88 kts 155°
2026-04-24 15:07 39.12844 117.37055 24 ft 57 kts 155°
2026-04-24 15:07 39.12575 117.37218 22 ft 30 kts 160°
2026-04-24 15:08 39.12415 117.37253 21 ft 20 kts 178°
2026-04-24 15:08 39.12304 117.37237 24 ft 9 kts 223°
2026-04-24 15:08 39.12310 117.37167 23 ft 10 kts 307°
2026-04-24 15:08 39.12375 117.37112 21 ft 13 kts 334°
2026-04-24 15:09 39.12468 117.37050 24 ft 16 kts 319°
2026-04-24 15:09 39.12465 117.36954 25 ft 14 kts 243°
2026-04-24 15:09 39.12415 117.36821 21 ft 19 kts 245°
2026-04-24 15:09 39.12353 117.36650 21 ft 23 kts 245°
2026-04-24 15:10 39.12346 117.36550 22 ft 9 kts 319°
2026-04-24 15:10 39.12408 117.36510 21 ft 11 kts 334°
2026-04-24 15:10 39.12487 117.36461 23 ft 14 kts 334°
2026-04-24 15:10 39.12584 117.36402 21 ft 17 kts 334°
2026-04-24 15:11 39.12682 117.36313 24 ft 18 kts 278°
2026-04-24 15:11 39.12726 117.36159 24 ft 19 kts 300°
2026-04-24 15:11 39.12765 117.36040 21 ft 12 kts 277°
2026-04-24 15:11 39.12748 117.35972 23 ft 7 kts 243°
2026-04-24 15:12 39.12733 117.35935 9 ft 2 kts 243°
2026-04-24 15:12 39.12732 117.35933 5 ft 0 kts 243°
2026-04-24 15:14 39.14630 117.35960 180 ft 145 kts 156°
2026-04-24 15:15 39.13727 117.36517 22 ft 137 kts 155°
2026-04-24 15:15 39.13694 117.36537 22 ft 134 kts 155°
2026-04-24 15:15 39.12732 117.35934 5 ft 0 kts 243°